VK3AS Weather Reports


Display with metric or nautical units.
time (UTC)temp
F
wind
direction
speed
MPH
gust
MPH
rain 1hr
in
rain 24hr
in
rain mn
in
humidity
%
barometer
mb
20260504033016 52 0.0 0.0 0.00 0.00 0.00 86 1010.2
20260504031532 52 0.0 0.0 0.00 0.00 0.00 85 1010.4
20260504030026 51 0.0 0.0 0.00 0.00 0.00 87 1010.6
20260504024518 51 0.0 0.0 0.00 0.00 0.00 86 1010.8
20260504023016 51 1.0 0.0 0.00 0.00 0.00 86 1010.9
20260504021528 51 2.0 0.0 0.00 0.01 0.00 86 1011.3
20260504020024 50 360 1.0 5.0 0.00 0.01 0.00 86 1011.4
20260504014525 50 360 1.0 6.0 0.00 0.02 0.00 86 1011.5
20260504013012 50 360 1.0 5.0 0.00 0.09 0.00 86 1011.7
20260504011516 50 49 1.0 7.0 0.00 0.11 0.00 85 1011.7
20260504010033 50 360 1.0 6.0 0.00 0.14 0.00 86 1011.7
20260504004528 50 360 1.0 5.0 0.00 0.24 0.00 85 1011.6
20260504003027 50 0.0 0.0 0.00 0.28 0.00 85 1011.5
20260504001515 49 360 2.0 4.0 0.00 0.41 0.00 86 1011.7
20260504000021 48 360 2.0 7.0 0.00 0.52 0.00 87 1011.6
20260503234525 48 360 1.0 4.0 0.00 0.57 0.00 88 1011.7
20260503233030 48 360 1.0 9.0 0.00 0.58 0.00 87 1011.8
20260503231518 48 360 1.0 4.0 0.00 0.58 0.00 87 1011.9
20260503230018 47 15 1.0 6.0 0.00 0.58 0.00 88 1011.8
20260503224523 47 360 2.0 9.0 0.00 0.87 0.00 88 1011.8
20260503223027 47 2.0 4.0 0.00 1.03 0.00 88 1011.6
20260503221532 47 360 1.0 3.0 0.00 1.03 0.00 87 1011.7
20260503220020 47 360 1.0 3.0 0.00 1.03 0.00 87 1011.7
20260503214517 47 360 1.0 6.0 0.00 1.03 0.00 86 1011.7
20260503213030 47 1.0 3.0 0.00 1.03 0.00 85 1011.6
20260503211525 47 0.0 4.0 0.00 1.03 0.00 85 1011.5
20260503210026 47 1.0 2.0 0.00 1.03 0.00 84 1011.5
20260503204523 47 0.0 0.0 0.00 1.03 0.00 83 1011.2
20260503203023 47 360 1.0 2.0 0.00 1.03 0.00 83 1011.2
20260503201530 47 0.0 6.0 0.00 1.03 0.00 82 1011.3
20260503200032 48 1.0 2.0 0.00 1.03 0.00 82 1011.3
20260503194530 48 360 0.0 3.0 0.00 1.05 0.00 81 1011.3
20260503193020 48 360 0.0 3.0 0.00 1.14 0.00 81 1011.1
20260503191526 48 360 0.0 3.0 0.00 1.25 0.00 80 1011.2
20260503190026 48 360 1.0 2.0 0.00 1.39 0.00 80 1011.3
20260503184529 48 360 1.0 5.0 0.00 1.48 0.00 80 1011.3
20260503183025 48 360 0.0 3.0 0.00 1.48 0.00 81 1011.4
20260503181536 48 360 0.0 2.0 0.00 1.49 0.00 81 1011.4
20260503180024 48 360 1.0 4.0 0.00 1.49 0.00 82 1011.5
20260503174511 48 360 0.0 3.0 0.00 1.49 0.00 81 1011.6
20260503173036 48 360 1.0 4.0 0.00 1.49 0.00 82 1011.7
20260503171520 48 360 0.0 5.0 0.00 1.49 0.00 81 1011.8
20260503081527 51 360 1.0 2.0 0.00 2.03 1.72 88 1012.4
20260503071509 52 0.0 0.0 0.00 2.03 1.72 88 1012.1
20260503054507 52 0.0 0.0 0.00 2.03 1.72 88 1012.0
20260503053009 52 0.0 0.0 0.00 2.03 1.72 88 1012.2
20260503051507 52 0.0 0.0 0.00 2.03 1.72 89 1012.1
20260503050007 52 0.0 0.0 0.00 2.03 1.72 88 1012.1
20260503044513 52 0.0 0.0 0.00 2.03 1.72 88 1012.1
20260503043007 52 0.0 0.0 0.00 2.03 1.72 89 1012.1
20260503041511 52 0.0 0.0 0.00 2.03 1.72 89 1012.0
20260503040018 51 0.0 0.0 0.00 2.03 1.72 89 1012.1
20260503034512 51 0.0 0.0 0.00 2.03 1.72 90 1012.1